Showing default

VEGA, 68430

Orbit data source: Space-Track

VEGA, 68430 is a Swedish payload satellite in SSO that was launched on Mon, 30 Mar 2026 UTC via an FALCON 9 launch vehicle from the Air Force Western Test Range (AFWTR). Payload-class satellites include a variety of spacecraft equipped with specific instruments for various scientific and technological missions. These include communications satellites like Starlink; space stations such as the ISS; scientific satellites like the Hubble; Earth observation satellites from companies like Planet Labs, Umbra, and HawkEye 360; GPS; miniature CubeSats for education and research; and military/defense satellites.

Loading next visibility...
Identifier
68430, 2026-067Q
Orbit
SSO
Country
Flag of SESE / SWED
Related business
None
Manufacturer
UNKSE
Mission
Operational spacecraft
Bus & Motor
CUBESAT 3U?, Unknown motor
Mass
~5 kg wet, ~5 kg dry
Launch date (UTC)
2026-03-30 (3 months ago)
Launch vehicle
FALCON 9
Launch site
Air Force Western Test Range (AFWTR)
Object type
Payload
Rocket body
Debris
Shape & HBR
Unknown shape, 14.5 m
Radar Cross Section
Medium (>0.1 m² and <1 m²)

Expand to show TLE details & history
Last TLE update: 2 days ago

TLE from 2 days ago
0 VEGA
1 68430U 26067Q   26171.34253855  .00005815  00000-0  28039-3 0  9998
2 68430  97.4497 129.7790 0001869  77.0476 283.0967 15.19087314 12426
Epoch: 2026-06-20T08:13Z
TLE epoch observation values (Epoch: 2026-06-20T08:13:15.330Z)
Latitude
-0.00005°
Longitude
97.9066°
Altitude
511.394 km
Speed
7.608 km/s
True Right ascension
08h 39m 06s
True Declination
0° 00' 00"
Sunlit
Object was in daylight at epoch
Visualization orbit readout
Latitude
Unknown
Longitude
Unknown
Altitude
Unknown
Speed
Unknown
Apparent Right ascension
Unknown
Apparent Declination
Unknown
Sunlit
N/A
Visualization observer readout
Local Sidereal Time
16:35:15
Azimuth
Unknown
Elevation
Unknown
Doppler factor
Unknown
Orbital elements
Apogee altitude
506.853 km
Perigee altitude
504.28 km
Semi-major axis
6,883.704 km
Eccentricity
0.00019
Inclination
97.4497°
RAAN
129.779°
Arg. of periapsis
77.0476°
True anomaly
283.07584°
Mean anomaly
283.0967°
Eccentric anomaly
283.08627°
Mean motion
3.80023 °/min
Orbital period
94.73 mins
BSTAR
0.00028039
Loading maneuver chart data...
Computing Atmospheric mass density...
Loading historical data...
Loading historical data...
Loading historical data...
Loading historical data...
Loading historical data...
Loading historical data...
Loading historical data...

Documentation

Showing up to 5 results
|